Location: Godzisko
(49.9648°N, 19.4576°E)
Time: 06:39:15
(UTC+00:00)

CREW DRAGON DEMO-1 DEB - Pass Details

Date: 20 April 2021
Orbit: 307 x 311 km, 51.6° (Epoch: 05 May)

Event Time Altitude Azimuth Distance (km) Brightness Sun altitude
Exits shadow 02:30:14 15° 275° (W) 983 4.5 -10.8°
Maximum altitude 02:32:20 60° 353° (N) 365 2.9 -10.5°
Drops below altitude 10° 02:35:00 10° 76° (ENE) 1,212 6.7 -10.1°
Sets 02:36:59 0° 80° (E) 2,045 8.0 -9.9°
